ウィルソン-ハリントン彗星

107P/(4015) Wilson-Harrington (2005)

English version
Home page
Updated on April 21, 2007

---------------------------------------------------------------------

・ プロフィール

・ 軌道要素

The following orbital elements are taken from MPO 47597

Epoch 2005 Aug. 18.0 TT = JDT 2453600.5                 MPC
M   8.80006              (2000.0)            P               Q
n   0.22992388     Peri.   91.28098     +0.99829562     -0.03232115
a   2.6388416      Node   270.57272     +0.01034250     +0.91743430
e   0.6237197      Incl.    2.78536     +0.05743592     +0.39657239
P   4.29           H   15.99          G   0.15           U   1
From 152 observations at 9 oppositions, 1949-2002, mean residual 0".79.

・ 星図

・ 光度変化

        H =16.0  G = 0.15

---------------------------------------------------------------------

軌道要素はMPCのEphemerides and Orbital Elementsに掲載されたものです。
星図は StellaNavigator Ver.2.0 for Windows (アストロアーツ 編著 / アスキー出版局刊) で作成したものです。
光度グラフはComet for Windowsで作成したものです。

---------------------------------------------------------------------

Copyright(C) Seiichi Yoshida (comet@aerith.net). All rights reserved.